Year,Month,Day,Hour,Minute,Value (Times are PST for temperature in C)
2012,06,21,00,00,16.30
2012,06,21,00,01,16.30
2012,06,21,00,02,16.30
2012,06,21,00,03,16.30
2012,06,21,00,04,16.30
2012,06,21,00,05,16.30
2012,06,21,00,06,16.40
2012,06,21,00,07,16.40
2012,06,21,00,08,16.40
2012,06,21,00,09,16.40
2012,06,21,00,10,16.40
2012,06,21,00,11,16.40
2012,06,21,00,12,16.40
2012,06,21,00,13,16.40
2012,06,21,00,14,16.40
2012,06,21,00,15,16.40
2012,06,21,00,16,16.40
2012,06,21,00,17,16.30
2012,06,21,00,18,16.30
2012,06,21,00,19,16.30
2012,06,21,00,20,16.20
2012,06,21,00,21,16.20
2012,06,21,00,22,16.20
2012,06,21,00,23,16.20
2012,06,21,00,24,16.10
2012,06,21,00,25,16.10
2012,06,21,00,26,16.10
2012,06,21,00,27,16.10
2012,06,21,00,28,16.10
2012,06,21,00,29,16.10
2012,06,21,00,30,16.10
2012,06,21,00,31,16.10
2012,06,21,00,32,16.10
2012,06,21,00,33,16.10
2012,06,21,00,34,16.10
2012,06,21,00,35,16.10
2012,06,21,00,36,16.10
2012,06,21,00,37,16.10
2012,06,21,00,38,16.10
2012,06,21,00,39,16.10
2012,06,21,00,40,16.10
2012,06,21,00,41,16.10
2012,06,21,00,42,16.10
2012,06,21,00,43,16.10
2012,06,21,00,44,16.10
2012,06,21,00,45,16.10
2012,06,21,00,46,16.10
2012,06,21,00,47,16.10
2012,06,21,00,48,16.10
2012,06,21,00,49,16.10
2012,06,21,00,50,16.10
2012,06,21,00,51,16.10
2012,06,21,00,52,16.10
2012,06,21,00,53,16.10
2012,06,21,00,54,16.10
2012,06,21,00,55,16.10
2012,06,21,00,56,16.10
2012,06,21,00,57,16.10
2012,06,21,00,58,16.10
2012,06,21,00,59,16.00
2012,06,21,01,00,16.00
2012,06,21,01,01,16.00
2012,06,21,01,02,16.00
2012,06,21,01,03,16.00
2012,06,21,01,04,15.90
2012,06,21,01,05,15.90
2012,06,21,01,06,15.90
2012,06,21,01,07,15.90
2012,06,21,01,08,15.90
2012,06,21,01,09,15.90
2012,06,21,01,10,15.80
2012,06,21,01,11,15.80
2012,06,21,01,12,15.80
2012,06,21,01,13,15.80
2012,06,21,01,14,15.80
2012,06,21,01,15,15.70
2012,06,21,01,16,15.70
2012,06,21,01,17,15.70
2012,06,21,01,18,15.70
2012,06,21,01,19,15.70
2012,06,21,01,20,15.70
2012,06,21,01,21,15.70
2012,06,21,01,22,15.70
2012,06,21,01,23,15.70
2012,06,21,01,24,15.60
2012,06,21,01,25,15.60
2012,06,21,01,26,15.60
2012,06,21,01,27,15.60
2012,06,21,01,28,15.60
2012,06,21,01,29,15.60
2012,06,21,01,30,15.60
2012,06,21,01,31,15.50
2012,06,21,01,32,15.50
2012,06,21,01,33,15.50
2012,06,21,01,34,15.40
2012,06,21,01,35,15.40
2012,06,21,01,36,15.40
2012,06,21,01,37,15.40
2012,06,21,01,38,15.30
2012,06,21,01,39,15.30
2012,06,21,01,40,15.30
2012,06,21,01,41,15.30
2012,06,21,01,42,15.20
2012,06,21,01,43,15.20
2012,06,21,01,44,15.20
2012,06,21,01,45,15.20
2012,06,21,01,46,15.20
2012,06,21,01,47,15.20
2012,06,21,01,48,15.20
2012,06,21,01,49,15.20
2012,06,21,01,50,15.20
2012,06,21,01,51,15.20
2012,06,21,01,52,15.20
2012,06,21,01,53,15.20
2012,06,21,01,54,15.20
2012,06,21,01,55,15.20
2012,06,21,01,56,15.20
2012,06,21,01,57,15.20
2012,06,21,01,58,15.20
2012,06,21,01,59,15.20
2012,06,21,02,00,15.20
2012,06,21,02,01,15.20
2012,06,21,02,02,15.20
2012,06,21,02,03,15.20
2012,06,21,02,04,15.20
2012,06,21,02,05,15.20
2012,06,21,02,06,15.20
2012,06,21,02,07,15.20
2012,06,21,02,08,15.20
2012,06,21,02,09,15.20
2012,06,21,02,10,15.20
2012,06,21,02,11,15.10
2012,06,21,02,12,15.10
2012,06,21,02,13,15.10
2012,06,21,02,14,15.10
2012,06,21,02,15,15.10
2012,06,21,02,16,15.10
2012,06,21,02,17,15.10
2012,06,21,02,18,15.20
2012,06,21,02,19,15.20
2012,06,21,02,20,15.20
2012,06,21,02,21,15.20
2012,06,21,02,22,15.20
2012,06,21,02,23,15.20
2012,06,21,02,24,15.20
2012,06,21,02,25,15.10
2012,06,21,02,26,15.10
2012,06,21,02,27,15.10
2012,06,21,02,28,15.10
2012,06,21,02,29,15.10
2012,06,21,02,30,15.00
2012,06,21,02,31,15.00
2012,06,21,02,32,15.00
2012,06,21,02,33,15.00
2012,06,21,02,34,15.00
2012,06,21,02,35,15.00
2012,06,21,02,36,15.00
2012,06,21,02,37,15.00
2012,06,21,02,38,15.00
2012,06,21,02,39,15.00
2012,06,21,02,40,15.00
2012,06,21,02,41,15.00
2012,06,21,02,42,15.00
2012,06,21,02,43,15.00
2012,06,21,02,44,15.00
2012,06,21,02,45,15.00
2012,06,21,02,46,15.00
2012,06,21,02,47,15.00
2012,06,21,02,48,15.00
2012,06,21,02,49,15.00
2012,06,21,02,50,15.00
2012,06,21,02,51,15.00
2012,06,21,02,52,15.00
2012,06,21,02,53,15.00
2012,06,21,02,54,15.00
2012,06,21,02,55,15.00
2012,06,21,02,56,15.00
2012,06,21,02,57,15.00
2012,06,21,02,58,15.00
2012,06,21,02,59,15.00
2012,06,21,03,00,15.00
2012,06,21,03,01,15.00
2012,06,21,03,02,15.00
2012,06,21,03,06,14.90
2012,06,21,03,07,14.90
2012,06,21,03,08,14.80
2012,06,21,03,09,14.80
2012,06,21,03,10,14.80
2012,06,21,03,11,14.80
2012,06,21,03,12,14.80
2012,06,21,03,13,14.80
2012,06,21,03,14,14.80
2012,06,21,03,15,14.80
2012,06,21,03,16,14.80
2012,06,21,03,17,14.80
2012,06,21,03,18,14.80
2012,06,21,03,19,14.70
2012,06,21,03,20,14.70
2012,06,21,03,21,14.70
2012,06,21,03,22,14.70
2012,06,21,03,23,14.70
2012,06,21,03,24,14.70
2012,06,21,03,25,14.70
2012,06,21,03,26,14.70
2012,06,21,03,27,14.70
2012,06,21,03,28,14.70
2012,06,21,03,29,14.70
2012,06,21,03,30,14.70
2012,06,21,03,31,14.70
2012,06,21,03,32,14.70
2012,06,21,03,33,14.70
2012,06,21,03,34,14.70
2012,06,21,03,35,14.70
2012,06,21,03,36,14.70
2012,06,21,03,37,14.70
2012,06,21,03,38,14.70
2012,06,21,03,39,14.70
2012,06,21,03,40,14.70
2012,06,21,03,41,14.70
2012,06,21,03,42,14.70
2012,06,21,03,43,14.70
2012,06,21,03,44,14.70
2012,06,21,03,45,14.70
2012,06,21,03,46,14.70
2012,06,21,03,47,14.70
2012,06,21,03,48,14.80
2012,06,21,03,49,14.80
2012,06,21,03,50,14.80
2012,06,21,03,51,14.80
2012,06,21,03,52,14.80
2012,06,21,03,53,14.80
2012,06,21,03,54,14.80
2012,06,21,03,55,14.80
2012,06,21,03,56,14.70
2012,06,21,03,57,14.70
2012,06,21,03,58,14.70
2012,06,21,03,59,14.70
2012,06,21,04,00,14.70
2012,06,21,04,01,14.70
2012,06,21,04,02,14.70
2012,06,21,04,03,14.70
2012,06,21,04,04,14.70
2012,06,21,04,05,14.70
2012,06,21,04,06,14.70
2012,06,21,04,07,14.70
2012,06,21,04,08,14.70
2012,06,21,04,09,14.60
2012,06,21,04,10,14.60
2012,06,21,04,11,14.60
2012,06,21,04,12,14.60
2012,06,21,04,13,14.60
2012,06,21,04,14,14.60
2012,06,21,04,15,14.60
2012,06,21,04,16,14.60
2012,06,21,04,17,14.60
2012,06,21,04,18,14.60
2012,06,21,04,19,14.60
2012,06,21,04,20,14.60
2012,06,21,04,21,14.60
2012,06,21,04,22,14.60
2012,06,21,04,23,14.50
2012,06,21,04,24,14.50
2012,06,21,04,25,14.50
2012,06,21,04,26,14.50
2012,06,21,04,27,14.50
2012,06,21,04,28,14.40
2012,06,21,04,29,14.40
2012,06,21,04,30,14.40
2012,06,21,04,31,14.40
2012,06,21,04,32,14.40
2012,06,21,04,33,14.30
2012,06,21,04,34,14.30
2012,06,21,04,35,14.30
2012,06,21,04,36,14.30
2012,06,21,04,37,14.20
2012,06,21,04,38,14.20
2012,06,21,04,39,14.20
2012,06,21,04,40,14.20
2012,06,21,04,41,14.10
2012,06,21,04,42,14.10
2012,06,21,04,43,14.10
2012,06,21,04,44,14.10
2012,06,21,04,45,14.00
2012,06,21,04,46,14.00
2012,06,21,04,47,14.00
2012,06,21,04,48,14.00
2012,06,21,04,49,13.90
2012,06,21,04,50,13.90
2012,06,21,04,51,13.90
2012,06,21,04,52,13.90
2012,06,21,04,53,13.90
2012,06,21,04,54,13.90
2012,06,21,04,55,13.90
2012,06,21,04,56,13.90
2012,06,21,04,57,13.80
2012,06,21,04,58,13.80
2012,06,21,04,59,13.80
2012,06,21,05,00,13.80
2012,06,21,05,01,13.70
2012,06,21,05,02,13.70
2012,06,21,05,03,13.70
2012,06,21,05,04,13.70
2012,06,21,05,05,13.70
2012,06,21,05,06,13.70
2012,06,21,05,07,13.60
2012,06,21,05,08,13.60
2012,06,21,05,09,13.60
2012,06,21,05,10,13.60
2012,06,21,05,11,13.60
2012,06,21,05,12,13.50
2012,06,21,05,13,13.50
2012,06,21,05,14,13.50
2012,06,21,05,15,13.40
2012,06,21,05,16,13.40
2012,06,21,05,17,13.40
2012,06,21,05,18,13.40
2012,06,21,05,19,13.40
2012,06,21,05,20,13.40
2012,06,21,05,21,13.40
2012,06,21,05,22,13.30
2012,06,21,05,23,13.30
2012,06,21,05,24,13.30
2012,06,21,05,25,13.30
2012,06,21,05,26,13.30
2012,06,21,05,27,13.30
2012,06,21,05,28,13.30
2012,06,21,05,29,13.20
2012,06,21,05,30,13.20
2012,06,21,05,31,13.20
2012,06,21,05,32,13.20
2012,06,21,05,33,13.10
2012,06,21,05,34,13.10
2012,06,21,05,35,13.10
2012,06,21,05,36,13.10
2012,06,21,05,37,13.00
2012,06,21,05,38,13.00
2012,06,21,05,39,13.00
2012,06,21,05,40,13.00
2012,06,21,05,41,13.00
2012,06,21,05,42,12.90
2012,06,21,05,43,12.90
2012,06,21,05,44,12.90
2012,06,21,05,45,12.90
2012,06,21,05,46,12.90
2012,06,21,05,47,12.90
2012,06,21,05,48,12.90
2012,06,21,05,49,12.90
2012,06,21,05,50,12.90
2012,06,21,05,51,12.90
2012,06,21,05,52,12.90
2012,06,21,05,53,13.00
2012,06,21,05,54,13.00
2012,06,21,05,55,13.00
2012,06,21,05,56,13.00
2012,06,21,05,57,13.10
2012,06,21,05,58,13.10
2012,06,21,05,59,13.10
2012,06,21,06,00,13.10
2012,06,21,06,01,13.10
2012,06,21,06,02,13.10
2012,06,21,06,03,13.10
2012,06,21,06,04,13.10
2012,06,21,06,05,13.10
2012,06,21,06,06,13.10
2012,06,21,06,07,13.10
2012,06,21,06,08,13.10
2012,06,21,06,09,13.10
2012,06,21,06,10,13.10
2012,06,21,06,11,13.10
2012,06,21,06,12,13.10
2012,06,21,06,13,13.10
2012,06,21,06,14,13.10
2012,06,21,06,15,13.10
2012,06,21,06,16,13.10
2012,06,21,06,17,13.20
2012,06,21,06,18,13.20
2012,06,21,06,19,13.20
2012,06,21,06,20,13.20
2012,06,21,06,21,13.20
2012,06,21,06,22,13.20
2012,06,21,06,23,13.30
2012,06,21,06,24,13.30
2012,06,21,06,25,13.30
2012,06,21,06,26,13.30
2012,06,21,06,27,13.40
2012,06,21,06,28,13.40
2012,06,21,06,29,13.40
2012,06,21,06,30,13.50
2012,06,21,06,31,13.50
2012,06,21,06,32,13.50
2012,06,21,06,33,13.50
2012,06,21,06,34,13.50
2012,06,21,06,35,13.50
2012,06,21,06,36,13.60
2012,06,21,06,37,13.60
2012,06,21,06,38,13.60
2012,06,21,06,39,13.60
2012,06,21,06,40,13.60
2012,06,21,06,41,13.60
2012,06,21,06,42,13.60
2012,06,21,06,43,13.70
2012,06,21,06,44,13.70
2012,06,21,06,45,13.70
2012,06,21,06,46,13.70
2012,06,21,06,47,13.80
2012,06,21,06,48,13.80
2012,06,21,06,49,13.80
2012,06,21,06,50,13.80
2012,06,21,06,51,13.90
2012,06,21,06,52,13.90
2012,06,21,06,53,13.90
2012,06,21,06,54,14.00
2012,06,21,06,55,14.00
2012,06,21,06,56,14.00
2012,06,21,06,57,14.10
2012,06,21,06,58,14.10
2012,06,21,06,59,14.10
2012,06,21,07,00,14.20
2012,06,21,07,01,14.20
2012,06,21,07,02,14.20
2012,06,21,07,03,14.30
2012,06,21,07,04,14.30
2012,06,21,07,05,14.30
2012,06,21,07,06,14.40
2012,06,21,07,07,14.40
2012,06,21,07,08,14.50
2012,06,21,07,09,14.50
2012,06,21,07,10,14.60
2012,06,21,07,11,14.60
2012,06,21,07,12,14.70
2012,06,21,07,13,14.70
2012,06,21,07,14,14.70
2012,06,21,07,15,14.80
2012,06,21,07,16,14.90
2012,06,21,07,17,14.90
2012,06,21,07,18,15.00
2012,06,21,07,19,15.00
2012,06,21,07,20,15.00
2012,06,21,07,21,15.00
2012,06,21,07,22,15.00
2012,06,21,07,23,15.00
2012,06,21,07,24,15.00
2012,06,21,07,25,15.00
2012,06,21,07,26,15.00
2012,06,21,07,27,15.00
2012,06,21,07,28,15.00
2012,06,21,07,29,15.00
2012,06,21,07,30,15.00
2012,06,21,07,31,15.00
2012,06,21,07,32,15.00
2012,06,21,07,33,15.10
2012,06,21,07,34,15.10
2012,06,21,07,35,15.10
2012,06,21,07,36,15.10
2012,06,21,07,37,15.10
2012,06,21,07,38,15.20
2012,06,21,07,39,15.20
2012,06,21,07,40,15.20
2012,06,21,07,41,15.20
2012,06,21,07,42,15.20
2012,06,21,07,43,15.30
2012,06,21,07,44,15.30
2012,06,21,07,45,15.30
2012,06,21,07,46,15.30
2012,06,21,07,47,15.30
2012,06,21,07,48,15.40
2012,06,21,07,49,15.40
2012,06,21,07,50,15.40
2012,06,21,07,51,15.50
2012,06,21,07,52,15.50
2012,06,21,07,53,15.60
2012,06,21,07,54,15.60
2012,06,21,07,55,15.60
2012,06,21,07,56,15.70
2012,06,21,07,57,15.70
2012,06,21,07,58,15.70
2012,06,21,07,59,15.80
2012,06,21,08,00,15.80
2012,06,21,08,01,15.80
2012,06,21,08,02,15.90
2012,06,21,08,03,15.90
2012,06,21,08,04,15.90
2012,06,21,08,05,15.90
2012,06,21,08,06,16.00
2012,06,21,08,07,16.00
2012,06,21,08,08,16.00
2012,06,21,08,09,16.10
2012,06,21,08,10,16.10
2012,06,21,08,11,16.10
2012,06,21,08,12,16.20
2012,06,21,08,13,16.20
2012,06,21,08,14,16.30
2012,06,21,08,15,16.30
2012,06,21,08,16,16.30
2012,06,21,08,17,16.30
2012,06,21,08,18,16.40
2012,06,21,08,19,16.40
2012,06,21,08,20,16.40
2012,06,21,08,21,16.50
2012,06,21,08,22,16.50
2012,06,21,08,23,16.60
2012,06,21,08,24,16.60
2012,06,21,08,25,16.70
2012,06,21,08,26,16.70
2012,06,21,08,27,16.70
2012,06,21,08,28,16.70
2012,06,21,08,29,16.70
2012,06,21,08,30,16.70
2012,06,21,08,31,16.70
2012,06,21,08,32,16.80
2012,06,21,08,33,16.80
2012,06,21,08,34,16.80
2012,06,21,08,35,16.90
2012,06,21,08,36,16.90
2012,06,21,08,37,16.90
2012,06,21,08,38,17.00
2012,06,21,08,39,17.00
2012,06,21,08,40,17.10
2012,06,21,08,41,17.10
2012,06,21,08,42,17.20
2012,06,21,08,43,17.30
2012,06,21,08,44,17.30
2012,06,21,08,45,17.40
2012,06,21,08,46,17.40
2012,06,21,08,47,17.50
2012,06,21,08,48,17.50
2012,06,21,08,49,17.60
2012,06,21,08,50,17.70
2012,06,21,08,51,17.80
2012,06,21,08,52,17.80
2012,06,21,08,53,17.90
2012,06,21,08,54,18.00
2012,06,21,08,55,18.10
2012,06,21,08,56,18.20
2012,06,21,08,57,18.30
2012,06,21,08,58,18.40
2012,06,21,08,59,18.50
2012,06,21,09,00,18.60
2012,06,21,09,01,18.60
2012,06,21,09,02,18.60
2012,06,21,09,03,18.70
2012,06,21,09,04,18.70
2012,06,21,09,05,18.80
2012,06,21,09,06,18.80
2012,06,21,09,07,18.90
2012,06,21,09,08,18.90
2012,06,21,09,09,19.00
2012,06,21,09,10,19.10
2012,06,21,09,11,19.20
2012,06,21,09,12,19.20
2012,06,21,09,13,19.20
2012,06,21,09,14,19.20
2012,06,21,09,15,19.20
2012,06,21,09,16,19.30
2012,06,21,09,17,19.40
2012,06,21,09,18,19.60
2012,06,21,09,19,19.70
2012,06,21,09,20,19.80
2012,06,21,09,21,20.00
2012,06,21,09,22,20.00
2012,06,21,09,23,20.10
2012,06,21,09,24,20.20
2012,06,21,09,25,20.20
2012,06,21,09,26,20.30
2012,06,21,09,27,20.30
2012,06,21,09,28,20.30
2012,06,21,09,29,20.20
2012,06,21,09,30,20.20
2012,06,21,09,31,20.20
2012,06,21,09,32,20.20
2012,06,21,09,33,20.20
2012,06,21,09,34,20.20
2012,06,21,09,35,20.30
2012,06,21,09,36,20.30
2012,06,21,09,37,20.40
2012,06,21,09,38,20.40
2012,06,21,09,39,20.50
2012,06,21,09,40,20.50
2012,06,21,09,41,20.60
2012,06,21,09,42,20.60
2012,06,21,09,43,20.70
2012,06,21,09,44,20.70
2012,06,21,09,45,20.70
2012,06,21,09,46,20.70
2012,06,21,09,47,20.60
2012,06,21,09,48,20.60
2012,06,21,09,49,20.50
2012,06,21,09,50,20.50
2012,06,21,09,51,20.40
2012,06,21,09,52,20.40
2012,06,21,09,53,20.40
2012,06,21,09,54,20.40
2012,06,21,09,55,20.40
2012,06,21,09,56,20.40
2012,06,21,09,57,20.40
2012,06,21,09,58,20.50
2012,06,21,09,59,20.50
2012,06,21,10,00,20.50
2012,06,21,10,01,20.50
2012,06,21,10,02,20.50
2012,06,21,10,03,20.50
2012,06,21,10,04,20.40
2012,06,21,10,05,20.40
2012,06,21,10,06,20.40
2012,06,21,10,07,20.40
2012,06,21,10,08,20.40
2012,06,21,10,09,20.50
2012,06,21,10,10,20.50
2012,06,21,10,11,20.50
2012,06,21,10,12,20.60
2012,06,21,10,13,20.60
2012,06,21,10,14,20.70
2012,06,21,10,15,20.70
2012,06,21,10,16,20.70
2012,06,21,10,17,20.80
2012,06,21,10,18,20.80
2012,06,21,10,19,20.80
2012,06,21,10,20,20.80
2012,06,21,10,21,20.80
2012,06,21,10,22,20.80
2012,06,21,10,23,20.80
2012,06,21,10,24,20.80
2012,06,21,10,25,20.80
2012,06,21,10,26,20.80
2012,06,21,10,27,20.70
2012,06,21,10,28,20.70
2012,06,21,10,29,20.70
2012,06,21,10,30,20.70
2012,06,21,10,31,20.70
2012,06,21,10,32,20.70
2012,06,21,10,33,20.70
2012,06,21,10,34,20.70
2012,06,21,10,35,20.70
2012,06,21,10,36,20.70
2012,06,21,10,37,20.70
2012,06,21,10,38,20.80
2012,06,21,10,39,20.80
2012,06,21,10,40,20.80
2012,06,21,10,41,20.90
2012,06,21,10,42,20.90
2012,06,21,10,43,20.90
2012,06,21,10,44,20.80
2012,06,21,10,45,20.80
2012,06,21,10,46,20.80
2012,06,21,10,47,20.80
2012,06,21,10,48,20.80
2012,06,21,10,49,20.80
2012,06,21,10,50,20.80
2012,06,21,10,51,20.80
2012,06,21,10,52,20.90
2012,06,21,10,53,20.90
2012,06,21,10,54,20.90
2012,06,21,10,55,20.90
2012,06,21,10,56,20.90
2012,06,21,10,57,20.90
2012,06,21,10,58,20.90
2012,06,21,10,59,20.90
2012,06,21,11,00,20.90
2012,06,21,11,01,21.00
2012,06,21,11,02,21.00
2012,06,21,11,03,21.00
2012,06,21,11,04,20.90
2012,06,21,11,05,20.90
2012,06,21,11,06,20.90
2012,06,21,11,07,20.80
2012,06,21,11,08,20.80
2012,06,21,11,09,20.80
2012,06,21,11,10,20.70
2012,06,21,11,11,20.70
2012,06,21,11,12,20.80
2012,06,21,11,13,20.80
2012,06,21,11,14,20.80
2012,06,21,11,15,20.90
2012,06,21,11,16,20.90
2012,06,21,11,17,20.90
2012,06,21,11,18,20.90
2012,06,21,11,19,20.90
2012,06,21,11,20,20.80
2012,06,21,11,21,20.80
2012,06,21,11,22,20.80
2012,06,21,11,23,20.80
2012,06,21,11,24,20.90
2012,06,21,11,25,20.90
2012,06,21,11,26,20.90
2012,06,21,11,27,20.90
2012,06,21,11,28,20.90
2012,06,21,11,29,20.90
2012,06,21,11,30,20.90
2012,06,21,11,31,21.00
2012,06,21,11,32,21.00
2012,06,21,11,33,21.10
2012,06,21,11,34,21.20
2012,06,21,11,35,21.20
2012,06,21,11,36,21.30
2012,06,21,11,37,21.40
2012,06,21,11,38,21.50
2012,06,21,11,39,21.50
2012,06,21,11,40,21.60
2012,06,21,11,41,21.50
2012,06,21,11,42,21.50
2012,06,21,11,43,21.50
2012,06,21,11,44,21.50
2012,06,21,11,45,21.50
2012,06,21,11,46,21.60
2012,06,21,11,47,21.70
2012,06,21,11,48,21.70
2012,06,21,11,49,21.80
2012,06,21,11,50,21.80
2012,06,21,11,51,21.80
2012,06,21,11,52,21.80
2012,06,21,11,53,21.80
2012,06,21,11,54,21.80
2012,06,21,11,55,21.80
2012,06,21,11,56,21.80
2012,06,21,11,57,21.70
2012,06,21,11,58,21.70
2012,06,21,11,59,21.70
2012,06,21,12,00,21.70
2012,06,21,12,01,21.70
2012,06,21,12,02,21.80
2012,06,21,12,03,21.80
2012,06,21,12,04,21.90
2012,06,21,12,05,22.00
2012,06,21,12,06,22.10
2012,06,21,12,07,22.10
2012,06,21,12,08,22.10
2012,06,21,12,09,22.00
2012,06,21,12,10,21.90
2012,06,21,12,11,21.80
2012,06,21,12,12,21.80
2012,06,21,12,13,21.90
2012,06,21,12,14,21.90
2012,06,21,12,15,21.90
2012,06,21,12,16,22.00
2012,06,21,12,17,22.00
2012,06,21,12,18,22.10
2012,06,21,12,19,22.10
2012,06,21,12,20,22.20
2012,06,21,12,21,22.20
2012,06,21,12,22,22.30
2012,06,21,12,23,22.30
2012,06,21,12,24,22.40
2012,06,21,12,25,22.50
2012,06,21,12,26,22.60
2012,06,21,12,27,22.80
2012,06,21,12,28,22.90
2012,06,21,12,29,23.00
2012,06,21,12,30,23.10
2012,06,21,12,31,23.10
2012,06,21,12,32,23.00
2012,06,21,12,33,23.00
2012,06,21,12,34,22.90
2012,06,21,12,35,22.90
2012,06,21,12,36,22.80
2012,06,21,12,37,22.70
2012,06,21,12,38,22.70
2012,06,21,12,39,22.70
2012,06,21,12,40,22.80
2012,06,21,12,41,22.80
2012,06,21,12,42,22.80
2012,06,21,12,43,22.90
2012,06,21,12,44,22.90
2012,06,21,12,45,23.00
2012,06,21,12,46,23.10
2012,06,21,12,47,23.10
2012,06,21,12,48,23.10
2012,06,21,12,49,23.20
2012,06,21,12,50,23.20
2012,06,21,12,51,23.30
2012,06,21,12,52,23.30
2012,06,21,12,53,23.30
2012,06,21,12,54,23.30
2012,06,21,12,55,23.40
2012,06,21,12,56,23.40
2012,06,21,12,57,23.50
2012,06,21,12,58,23.50
2012,06,21,12,59,23.60
2012,06,21,13,00,23.70
2012,06,21,13,01,23.70
2012,06,21,13,02,23.80
2012,06,21,13,03,23.80
2012,06,21,13,04,23.80
2012,06,21,13,05,23.90
2012,06,21,13,06,23.90
2012,06,21,13,07,24.00
2012,06,21,13,08,24.00
2012,06,21,13,09,23.90
2012,06,21,13,10,23.80
2012,06,21,13,11,23.80
2012,06,21,13,12,23.70
2012,06,21,13,13,23.70
2012,06,21,13,14,23.70
2012,06,21,13,15,23.80
2012,06,21,13,16,24.00
2012,06,21,13,17,24.00
2012,06,21,13,18,24.00
2012,06,21,13,19,23.90
2012,06,21,13,20,23.80
2012,06,21,13,21,23.70
2012,06,21,13,22,23.70
2012,06,21,13,23,23.70
2012,06,21,13,24,23.80
2012,06,21,13,25,23.80
2012,06,21,13,26,23.90
2012,06,21,13,27,24.00
2012,06,21,13,28,24.10
2012,06,21,13,29,24.10
2012,06,21,13,30,24.10
2012,06,21,13,31,24.10
2012,06,21,13,32,24.10
2012,06,21,13,33,24.10
2012,06,21,13,34,24.10
2012,06,21,13,35,24.10
2012,06,21,13,36,24.10
2012,06,21,13,37,24.00
2012,06,21,13,38,24.00
2012,06,21,13,39,24.00
2012,06,21,13,40,23.90
2012,06,21,13,41,23.90
2012,06,21,13,42,24.00
2012,06,21,13,43,24.00
2012,06,21,13,44,24.10
2012,06,21,13,45,24.20
2012,06,21,13,46,24.20
2012,06,21,13,47,24.30
2012,06,21,13,48,24.30
2012,06,21,13,49,24.20
2012,06,21,13,50,24.10
2012,06,21,13,51,24.00
2012,06,21,13,52,24.00
2012,06,21,13,53,24.00
2012,06,21,13,54,23.90
2012,06,21,13,55,23.80
2012,06,21,13,56,23.80
2012,06,21,13,57,23.80
2012,06,21,13,58,23.80
2012,06,21,13,59,23.90
2012,06,21,14,00,23.90
2012,06,21,14,01,23.90
2012,06,21,14,02,23.80
2012,06,21,14,03,23.80
2012,06,21,14,04,23.90
2012,06,21,14,05,24.10
2012,06,21,14,06,24.20
2012,06,21,14,07,24.30
2012,06,21,14,08,24.30
2012,06,21,14,09,24.40
2012,06,21,14,10,24.60
2012,06,21,14,11,24.60
2012,06,21,14,12,24.60
2012,06,21,14,13,24.70
2012,06,21,14,14,24.60
2012,06,21,14,15,24.50
2012,06,21,14,16,24.30
2012,06,21,14,17,24.30
2012,06,21,14,18,24.30
2012,06,21,14,19,24.30
2012,06,21,14,20,24.30
2012,06,21,14,21,24.30
2012,06,21,14,22,24.30
2012,06,21,14,23,24.40
2012,06,21,14,24,24.40
2012,06,21,14,25,24.40
2012,06,21,14,26,24.40
2012,06,21,14,27,24.40
2012,06,21,14,28,24.40
2012,06,21,14,29,24.40
2012,06,21,14,30,24.40
2012,06,21,14,31,24.30
2012,06,21,14,32,24.40
2012,06,21,14,33,24.30
2012,06,21,14,34,24.30
2012,06,21,14,35,24.30
2012,06,21,14,36,24.20
2012,06,21,14,37,24.30
2012,06,21,14,38,24.20
2012,06,21,14,39,24.20
2012,06,21,14,40,24.20
2012,06,21,14,41,24.30
2012,06,21,14,42,24.30
2012,06,21,14,43,24.30
2012,06,21,14,44,24.20
2012,06,21,14,45,24.20
2012,06,21,14,46,24.10
2012,06,21,14,47,24.00
2012,06,21,14,48,24.00
2012,06,21,14,49,24.00
2012,06,21,14,50,24.10
2012,06,21,14,51,24.10
2012,06,21,14,52,24.20
2012,06,21,14,53,24.20
2012,06,21,14,54,24.20
2012,06,21,14,55,24.20
2012,06,21,14,56,24.30
2012,06,21,14,57,24.40
2012,06,21,14,58,24.60
2012,06,21,14,59,24.70
2012,06,21,15,00,24.90
2012,06,21,15,01,25.00
2012,06,21,15,02,25.00
2012,06,21,15,03,25.10
2012,06,21,15,04,25.10
2012,06,21,15,05,25.10
2012,06,21,15,06,25.00
2012,06,21,15,07,25.00
2012,06,21,15,08,25.10
2012,06,21,15,09,25.10
2012,06,21,15,10,25.10
2012,06,21,15,11,25.10
2012,06,21,15,12,25.10
2012,06,21,15,13,25.10
2012,06,21,15,14,25.20
2012,06,21,15,15,25.20
2012,06,21,15,16,25.20
2012,06,21,15,17,25.30
2012,06,21,15,18,25.20
2012,06,21,15,19,25.20
2012,06,21,15,20,25.20
2012,06,21,15,21,25.20
2012,06,21,15,22,25.20
2012,06,21,15,23,25.30
2012,06,21,15,24,25.30
2012,06,21,15,25,25.30
2012,06,21,15,26,25.40
2012,06,21,15,27,25.50
2012,06,21,15,28,25.70
2012,06,21,15,29,25.80
2012,06,21,15,30,25.90
2012,06,21,15,31,25.80
2012,06,21,15,32,25.80
2012,06,21,15,33,25.80
2012,06,21,15,34,25.70
2012,06,21,15,35,25.60
2012,06,21,15,36,25.60
2012,06,21,15,37,25.50
2012,06,21,15,38,25.60
2012,06,21,15,39,25.50
2012,06,21,15,40,25.50
2012,06,21,15,41,25.50
2012,06,21,15,42,25.60
2012,06,21,15,43,25.70
2012,06,21,15,44,25.70
2012,06,21,15,45,25.60
2012,06,21,15,46,25.50
2012,06,21,15,47,25.50
2012,06,21,15,48,25.40
2012,06,21,15,49,25.40
2012,06,21,15,50,25.30
2012,06,21,15,51,25.30
2012,06,21,15,52,25.20
2012,06,21,15,53,25.10
2012,06,21,15,54,25.10
2012,06,21,15,55,24.90
2012,06,21,15,56,24.90
2012,06,21,15,57,24.80
2012,06,21,15,58,24.80
2012,06,21,15,59,24.80
2012,06,21,16,00,24.80
2012,06,21,16,01,24.80
2012,06,21,16,02,24.80
2012,06,21,16,03,24.80
2012,06,21,16,04,24.80
2012,06,21,16,05,24.80
2012,06,21,16,06,24.70
2012,06,21,16,07,24.70
2012,06,21,16,08,24.70
2012,06,21,16,09,24.60
2012,06,21,16,10,24.60
2012,06,21,16,11,24.60
2012,06,21,16,12,24.50
2012,06,21,16,13,24.40
2012,06,21,16,14,24.20
2012,06,21,16,15,24.10
2012,06,21,16,16,23.90
2012,06,21,16,17,23.80
2012,06,21,16,18,23.70
2012,06,21,16,19,23.70
2012,06,21,16,20,23.60
2012,06,21,16,21,23.50
2012,06,21,16,22,23.40
2012,06,21,16,23,23.30
2012,06,21,16,24,23.30
2012,06,21,16,25,23.20
2012,06,21,16,26,23.20
2012,06,21,16,27,23.10
2012,06,21,16,28,23.10
2012,06,21,16,29,23.10
2012,06,21,16,30,23.00
2012,06,21,16,31,23.00
2012,06,21,16,32,23.00
2012,06,21,16,33,23.00
2012,06,21,16,34,22.90
2012,06,21,16,35,22.90
2012,06,21,16,36,22.90
2012,06,21,16,37,22.90
2012,06,21,16,38,22.80
2012,06,21,16,39,22.80
2012,06,21,16,40,22.80
2012,06,21,16,41,22.80
2012,06,21,16,42,22.80
2012,06,21,16,43,22.80
2012,06,21,16,44,22.80
2012,06,21,16,45,22.80
2012,06,21,16,46,22.80
2012,06,21,16,47,22.80
2012,06,21,16,48,22.80
2012,06,21,16,49,22.80
2012,06,21,16,50,22.80
2012,06,21,16,51,22.70
2012,06,21,16,52,22.70
2012,06,21,16,53,22.80
2012,06,21,16,54,22.80
2012,06,21,16,55,22.80
2012,06,21,16,56,22.70
2012,06,21,16,57,22.70
2012,06,21,16,58,22.70
2012,06,21,16,59,22.70
2012,06,21,17,00,22.60
2012,06,21,17,01,22.60
2012,06,21,17,02,22.60
2012,06,21,17,03,22.60
2012,06,21,17,04,22.60
2012,06,21,17,05,22.60
2012,06,21,17,06,22.60
2012,06,21,17,07,22.60
2012,06,21,17,08,22.60
2012,06,21,17,09,22.60
2012,06,21,17,10,22.60
2012,06,21,17,11,22.50
2012,06,21,17,12,22.50
2012,06,21,17,13,22.40
2012,06,21,17,14,22.30
2012,06,21,17,15,22.30
2012,06,21,17,16,22.30
2012,06,21,17,17,22.20
2012,06,21,17,18,22.20
2012,06,21,17,19,22.20
2012,06,21,17,20,22.10
2012,06,21,17,21,22.10
2012,06,21,17,22,22.10